TimePST,TemperatureF,Dew PointF,Humidity,Sea Level PressureIn,VisibilityMPH,Wind Direction,Wind SpeedMPH,Gust SpeedMPH,PrecipitationIn,Events,Conditions,WindDirDegrees,DateUTC
12:53 AM,33.1,26.1,75,29.81,10.0,SSE,16.1,-,0.00,,Overcast,160,2012-12-21 08:53:00
1:53 AM,32.0,27.0,82,29.82,9.0,SSE,11.5,-,0.00,Snow,Light Snow,150,2012-12-21 09:53:00
2:53 AM,30.0,28.0,92,29.82,10.0,South,16.1,-,0.00,,Overcast,170,2012-12-21 10:53:00
3:53 AM,32.0,27.0,82,29.81,6.0,SSE,9.2,-,0.00,Snow,Light Snow,160,2012-12-21 11:53:00
4:53 AM,32.0,27.0,82,29.81,10.0,South,15.0,-,0.00,,Overcast,170,2012-12-21 12:53:00
5:53 AM,33.1,25.0,72,29.80,10.0,South,18.4,33.4,N/A,,Overcast,180,2012-12-21 13:53:00
6:00 AM,33.8,24.8,70,29.76,10.0,South,21.9,27.6,N/A,,Overcast,180,2012-12-21 14:00:00
6:53 AM,33.8,26.6,75,29.81,10.0,South,13.8,-,N/A,,Overcast,190,2012-12-21 14:53:00
7:53 AM,32.0,26.1,79,29.81,7.0,SSE,13.8,-,0.00,Snow,Light Snow,160,2012-12-21 15:53:00
8:53 AM,32.0,26.1,79,29.81,9.0,South,18.4,-,0.00,Snow,Light Snow,170,2012-12-21 16:53:00
9:22 AM,33.8,26.6,75,29.77,9.0,South,20.7,-,0.00,,Overcast,170,2012-12-21 17:22:00
9:53 AM,34.0,26.1,73,29.81,10.0,SSE,19.6,28.8,0.00,,Overcast,160,2012-12-21 17:53:00
10:53 AM,35.1,27.0,72,29.79,10.0,SSE,15.0,20.7,N/A,,Overcast,160,2012-12-21 18:53:00
11:53 AM,36.0,27.0,70,29.76,10.0,SSE,12.7,-,N/A,,Overcast,150,2012-12-21 19:53:00
12:53 PM,36.0,28.0,73,29.73,10.0,SSE,19.6,27.6,N/A,,Overcast,160,2012-12-21 20:53:00
1:53 PM,37.0,27.0,67,29.70,10.0,SSW,17.3,20.7,N/A,,Mostly Cloudy,200,2012-12-21 21:53:00
2:40 PM,33.8,28.4,81,29.73,5.0,WSW,18.4,25.3,0.00,Snow,Light Snow,250,2012-12-21 22:40:00
2:46 PM,33.8,28.4,81,29.74,1.5,West,10.4,-,0.00,Snow,Light Snow,260,2012-12-21 22:46:00
2:48 PM,33.8,30.2,87,29.73,0.8,West,9.2,-,0.00,Snow,Light Snow,270,2012-12-21 22:48:00
2:53 PM,32.0,30.0,92,29.76,0.8,WNW,6.9,-,0.00,Snow,Light Snow,290,2012-12-21 22:53:00
3:43 PM,32.0,30.2,93,29.74,0.5,SW,20.7,27.6,0.00,Snow,Snow,220,2012-12-21 23:43:00
3:53 PM,32.0,28.9,88,29.76,0.5,SSW,18.4,29.9,0.01,Snow,Snow,200,2012-12-21 23:53:00
4:01 PM,32.0,30.2,93,29.73,1.0,South,11.5,-,0.00,Snow,Light Snow,190,2012-12-22 00:01:00
4:09 PM,32.0,30.2,93,29.72,2.0,South,9.2,-,0.00,Snow,Light Snow,170,2012-12-22 00:09:00
4:14 PM,32.0,30.2,93,29.72,5.0,SSE,10.4,-,0.00,Snow,Light Snow,160,2012-12-22 00:14:00
4:22 PM,32.0,30.2,93,29.73,7.0,South,10.4,-,0.00,,Mostly Cloudy,170,2012-12-22 00:22:00
4:53 PM,30.9,27.0,85,29.75,7.0,SSE,16.1,25.3,0.00,,Mostly Cloudy,150,2012-12-22 00:53:00
5:53 PM,30.9,26.1,82,29.76,7.0,South,11.5,19.6,N/A,,Overcast,170,2012-12-22 01:53:00
6:53 PM,30.2,26.6,86,29.75,7.0,South,12.7,-,N/A,,Overcast,170,2012-12-22 02:53:00
7:53 PM,33.1,27.0,78,29.75,7.0,SSE,16.1,-,N/A,,Overcast,150,2012-12-22 03:53:00
8:53 PM,32.0,27.0,82,29.74,7.0,SSE,15.0,-,N/A,,Overcast,160,2012-12-22 04:53:00
9:53 PM,30.2,28.4,93,29.72,7.0,SSE,13.8,-,N/A,,Overcast,150,2012-12-22 05:53:00
10:07 PM,30.2,28.4,93,29.69,10.0,SSE,11.5,-,N/A,,Overcast,160,2012-12-22 06:07:00
10:53 PM,32.0,28.9,88,29.71,10.0,SSE,13.8,-,0.00,,Overcast,160,2012-12-22 06:53:00
11:50 PM,33.8,30.2,87,29.66,2.5,SSE,15.0,-,0.00,Snow,Light Snow,160,2012-12-22 07:50:00
11:53 PM,32.0,30.0,92,29.69,2.0,South,13.8,-,0.00,Snow,Light Snow,170,2012-12-22 07:53:00